Home > Weather > Derby > Past weeks

Flag for United Kingdom Past Weather in Derby, England, United Kingdom — Yesterday and Last 2 Weeks

Now
59 °F

Overcast.


Feels Like: 58 °F
Forecast: 53 / 67 °F
Wind: 7 mph from Southwest

Location: East Midlands

Current Time: Jul 29, 2016 at 7:04:01 AM

Latest Report: Jul 29, 2016 at 6:20 AM


Visibility: 2 mi

Pressure: 29.80 "Hg

Humidity: 88%

Dew Point: 55 °F

Location of DerbyLocation

Past Weather in Derby — Graph

°F

Derby Temperature Yesterday

Maximum temperature yesterday: 70 °F (at 7:20 PM)
Minimum temperature yesterday: 52 °F (at 12:20 AM)
Average temperature yesterday: 60 °F

High & Low Weather Summary for the Past Weeks

 TemperatureHumidityPressure
High88 °F (Jul 19, 3:20 PM)100% (Jul 16, 11:20 AM)30.30 "Hg (Jul 16, 11:20 AM)
Low50 °F (Jul 14, 5:20 AM)35% (Jul 19, 11:50 AM)29.68 "Hg (Jul 20, 9:20 AM)
Average66 °F75%30.06 "Hg
* Reported Jul 14 5:20 AM — Jul 29 5:50 AM, Derby, Weather by CustomWeather, © 2016

Note: Actual official high and low records may vary slightly from our data, if they occured in-between our weather recording intervals... More about our weather records

Advertising

Derby Weather History for the Previous 24 Hours

Scroll right to see more
 ConditionsComfort  
Time TempWeatherWind HumidityBarometerVisibility
5:50 AM
Fri, Jul 29
59 °FPassing clouds.7 mph88%29.80 "HgN/A
5:20 AM59 °FPassing clouds.9 mph88%29.80 "HgN/A
4:50 AM59 °FPassing clouds.9 mph88%29.80 "HgN/A
4:20 AM59 °FClear.8 mph94%29.80 "Hg10 mi
3:50 AM59 °FClear.9 mph94%29.80 "Hg10 mi
3:20 AM59 °FClear.9 mph94%29.80 "Hg10 mi
2:50 AM59 °FPassing clouds.12 mph94%29.80 "HgN/A
2:20 AM61 °FClear.8 mph88%29.80 "Hg10 mi
1:50 AM61 °FClear.9 mph88%29.80 "Hg10 mi
1:20 AM61 °FClear.9 mph88%29.83 "Hg10 mi
12:50 AM63 °FClear.8 mph88%29.83 "Hg10 mi
12:20 AM63 °FPassing clouds.7 mph83%29.83 "HgN/A
11:50 PM
Thu, Jul 28
63 °FClear.7 mph83%29.83 "Hg10 mi
11:20 PM63 °FClear.7 mph83%29.83 "Hg10 mi
10:50 PM64 °FPassing clouds.6 mph78%29.83 "HgN/A
10:20 PM64 °FClear.9 mph78%29.83 "Hg10 mi
9:50 PM64 °FSunny.9 mph78%29.83 "Hg10 mi
9:20 PM64 °FSunny.7 mph78%29.83 "Hg10 mi
8:50 PM66 °FSunny.10 mph73%29.83 "Hg10 mi
8:20 PM64 °FPassing clouds.9 mph78%29.83 "HgN/A
7:50 PM68 °FScattered clouds.12 mph69%29.83 "HgN/A
7:20 PM70 °FPartly sunny.9 mph69%29.80 "HgN/A
6:50 PM68 °FPartly sunny.10 mph73%29.80 "HgN/A
6:20 PM68 °FPartly sunny.14 mph73%29.83 "HgN/A
5:50 PM68 °FBroken clouds.14 mph78%29.83 "HgN/A
5:20 PM66 °FBroken clouds.15 mph83%29.83 "HgN/A
4:50 PM64 °FScattered showers. Broken clouds.15 mph83%29.83 "HgN/A
4:20 PM64 °FBroken clouds.13 mph78%29.83 "HgN/A
3:50 PM63 °FPartly sunny.12 mph83%29.86 "HgN/A
3:20 PM61 °FPartly sunny.14 mph88%29.86 "HgN/A
2:50 PM61 °FBroken clouds.10 mph88%29.89 "HgN/A
2:20 PM59 °FSprinkles. Broken clouds.10 mph94%29.89 "HgN/A
1:50 PM57 °FLight rain. Broken clouds.10 mph94%29.92 "Hg3 mi
1:20 PM59 °FLight rain. Cloudy.9 mph88%29.92 "Hg4 mi
12:50 PM59 °FSprinkles. Partly sunny.14 mph88%29.92 "HgN/A
12:20 PM61 °FSprinkles. Partly sunny.10 mph77%29.92 "HgN/A
11:50 AM63 °FScattered clouds.10 mph68%29.92 "HgN/A
11:20 AM61 °FPassing clouds.10 mph72%29.95 "HgN/A
10:50 AM64 °FPassing clouds.12 mph56%29.95 "HgN/A
10:20 AM63 °FSunny.10 mph59%29.95 "Hg10 mi
9:50 AM63 °FPassing clouds.8 mph64%29.95 "HgN/A
9:20 AM63 °FSunny.7 mph64%29.95 "Hg10 mi
8:50 AM61 °FPassing clouds.7 mph68%29.95 "HgN/A
8:20 AM59 °FSunny.6 mph77%29.95 "Hg10 mi
7:50 AM57 °FSunny.6 mph82%29.95 "Hg10 mi
7:20 AM55 °FSunny.6 mph82%29.98 "Hg10 mi
Weather by CustomWeather, © 2016

See weather overviewHow to use our weather pages